CW4038 Weather Reports


time (UTC)temp
F
wind
direction
speed
knots
gust
knots
rain 1hr
in
rain 24hr
in
rain mn
in
humidity
%
barometer
mb
20190323230115 61 323 1.7 5.2 0.00 0.03 0.03 73 1021.0
20190323225214 61 317 2.6 5.2 0.00 0.03 0.03 75 1021.3
20190323224313 61 296 1.7 5.2 0.00 0.03 0.03 76 1021.3
20190323223412 59 302 1.7 4.3 0.00 0.03 0.03 77 1021.3
20190323222512 59 320 1.7 5.2 0.00 0.03 0.03 80 1021.3
20190323221611 59 319 2.6 5.2 0.00 0.03 0.03 80 1021.3
20190323220710 59 304 1.7 4.3 0.00 0.03 0.03 80 1021.3
20190323215809 58 305 1.7 5.2 0.00 0.03 0.03 82 1021.3
20190323214908 58 331 1.7 5.2 0.01 0.03 0.03 83 1021.3
20190323214007 58 317 2.6 6.1 0.02 0.03 0.03 85 1021.3
20190323213106 57 323 2.6 6.1 0.02 0.03 0.03 88 1021.6
20190323212205 56 302 1.7 7.8 0.02 0.03 0.03 90 1021.6
20190323211304 56 312 1.7 7.8 0.02 0.03 0.03 90 1021.6
20190323210403 56 324 2.6 7.8 0.03 0.03 0.03 89 1021.6
20190323205502 56 315 3.5 7.8 0.03 0.03 0.03 88 1021.6
20190323204601 57 313 2.6 7.8 0.02 0.02 0.02 84 1021.6
20190323203700 58 312 2.6 6.1 0.01 0.01 0.01 83 1021.6
20190323202759 58 322 2.6 6.1 0.01 0.01 0.01 82 1021.6
20190323201858 58 244 0.9 7.0 0.01 0.01 0.01 80 1021.7
20190323200957 60 320 1.7 7.0 0.01 0.01 0.01 78 1021.7
20190323200057 60 302 1.7 6.1 0.00 0.00 0.00 73 1021.7
20190323195156 60 321 1.7 6.1 0.00 0.00 0.00 73 1021.7
20190323194255 60 315 2.6 6.1 0.00 0.00 0.00 75 1021.7
20190323193354 59 313 1.7 6.1 0.00 0.00 0.00 76 1021.7
20190323192453 60 316 2.6 7.0 0.00 0.00 0.00 75 1021.7
20190323191552 60 306 1.7 7.0 0.00 0.00 0.00 76 1021.7
20190323190651 61 314 3.5 7.0 0.00 0.00 0.00 73 1021.7
20190323185750 61 323 2.6 6.1 0.00 0.00 0.00 72 1021.7
20190323184850 60 327 2.6 5.2 0.00 0.00 0.00 72 1022.1
20190323183949 60 315 2.6 5.2 0.00 0.00 0.00 73 1021.7
20190323183048 60 320 1.7 6.1 0.00 0.00 0.00 73 1021.7
20190323182147 60 314 1.7 6.1 0.00 0.00 0.00 75 1021.7
20190323181246 60 317 1.7 5.2 0.00 0.00 0.00 74 1021.7
20190323180345 60 309 0.9 4.3 0.00 0.00 0.00 74 1021.7
20190323175444 60 311 1.7 5.2 0.00 0.00 0.00 73 1021.4
20190323174543 60 317 1.7 5.2 0.00 0.00 0.00 73 1021.4
20190323173642 60 316 0.9 3.5 0.00 0.00 0.00 72 1021.4
20190323172741 60 316 1.7 3.5 0.00 0.00 0.00 72 1021.4
20190323171840 60 355 1.7 3.5 0.00 0.00 0.00 72 1021.4
20190323170940 59 310 0.9 2.6 0.00 0.00 0.00 73 1021.4
20190323170039 59 313 0.9 3.5 0.00 0.00 0.00 73 1021.4
20190323165138 59 321 0.9 3.5 0.00 0.00 0.00 73 1021.4
20190323164237 58 231 0.9 2.6 0.00 0.00 0.00 74 1021.4
20190323163336 58 325 0.9 1.7 0.00 0.00 0.00 75 1021.4
20190323162435 58 306 0.9 1.7 0.00 0.00 0.00 74 1021.0
20190323161534 58 305 0.0 1.7 0.00 0.00 0.00 73 1021.4
20190323160633 58 187 0.9 0.9 0.00 0.00 0.00 73 1021.1
20190323155733 57 125 0.9 1.7 0.00 0.00 0.00 75 1021.1
20190323154831 56 141 0.9 1.7 0.00 0.00 0.00 77 1021.0
20190323153930 55 136 0.9 0.9 0.00 0.00 0.00 78 1021.0
20190323153030 53 139 0.0 0.0 0.00 0.00 0.00 82 1021.0
20190323152128 52 138 0.0 1.7 0.00 0.00 0.00 83 1020.6
20190323151228 51 143 0.9 1.7 0.00 0.00 0.00 85 1020.6
20190323150327 50 128 0.9 0.9 0.00 0.00 0.00 86 1020.6
20190323145426 49 115 0.0 0.9 0.00 0.00 0.00 87 1020.6
20190323144525 48 115 0.0 0.9 0.00 0.00 0.00 88 1020.3
20190323143624 47 119 0.9 0.9 0.00 0.00 0.00 89 1019.9
20190323142723 47 104 0.9 0.9 0.00 0.00 0.00 89 1019.9
20190323141822 47 58 0.0 0.0 0.00 0.00 0.00 88 1020.3
20190323140921 46 58 0.0 0.0 0.00 0.00 0.00 89 1020.3
20190323140020 46 58 0.0 0.0 0.00 0.00 0.00 88 1020.3
20190323135119 46 58 0.0 0.0 0.00 0.00 0.00 87 1020.3
20190323134218 47 59 0.0 0.0 0.00 0.00 0.00 86 1020.3
20190323133317 47 60 0.0 0.0 0.00 0.00 0.00 86 1020.3
20190323132417 47 60 0.0 0.0 0.00 0.00 0.00 86 1020.3
20190323131516 48 59 0.0 0.0 0.00 0.00 0.00 85 1020.0
20190323130615 48 58 0.0 0.0 0.00 0.00 0.00 85 1020.0
20190323125714 48 58 0.0 0.0 0.00 0.00 0.00 84 1020.1
20190323124814 49 58 0.0 0.0 0.00 0.00 0.00 85 1019.7
20190323123913 48 58 0.0 0.0 0.00 0.00 0.00 86 1019.7
20190323123012 48 58 0.0 0.0 0.00 0.00 0.00 86 1019.7
20190323122111 48 58 0.0 0.0 0.00 0.00 0.00 87 1019.7
20190323121211 48 358 0.0 0.0 0.00 0.00 0.00 86 1020.0
20190323120310 48 358 0.0 0.0 0.00 0.00 0.00 86 1020.0
20190323115409 48 359 0.0 0.0 0.00 0.00 0.00 86 1020.0
20190323114508 48 359 0.0 0.0 0.00 0.00 0.00 86 1019.7
20190323113607 48 358 0.0 0.9 0.00 0.00 0.00 87 1020.1
20190323112706 48 358 0.0 0.9 0.00 0.00 0.00 87 1020.1
20190323111805 48 358 0.9 0.9 0.00 0.00 0.00 87 1020.1
20190323110904 48 105 0.0 0.9 0.00 0.00 0.00 87 1020.0
20190323110003 48 105 0.0 0.0 0.00 0.00 0.00 86 1020.0
20190323105102 48 105 0.0 0.0 0.00 0.00 0.00 86 1020.0
20190323104202 48 105 0.0 0.0 0.00 0.00 0.00 86 1019.7
20190323103301 49 106 0.0 0.0 0.00 0.00 0.00 86 1019.7
20190323102400 49 105 0.0 0.0 0.00 0.00 0.00 85 1019.7
20190323101500 49 105 0.0 0.0 0.00 0.00 0.00 85 1019.7
20190323100558 49 105 0.0 0.9 0.00 0.00 0.00 85 1019.4
20190323095656 49 106 0.0 0.9 0.00 0.00 0.00 85 1019.7
20190323094755 49 101 0.0 0.9 0.00 0.00 0.00 85 1019.7
20190323093855 49 101 0.0 0.9 0.00 0.00 0.00 85 1020.1
20190323092953 49 103 0.0 0.0 0.00 0.00 0.00 86 1020.4
20190323092052 49 103 0.0 0.0 0.00 0.00 0.00 85 1020.4
20190323091152 50 103 0.0 0.0 0.00 0.00 0.00 84 1020.4
20190323090251 50 103 0.0 0.0 0.00 0.00 0.00 83 1020.4
20190323085350 50 103 0.0 0.0 0.00 0.00 0.00 83 1020.4
20190323084449 50 103 0.0 0.0 0.00 0.00 0.00 81 1020.4
20190323083548 51 103 0.0 0.0 0.00 0.00 0.00 79 1020.4
20190323082648 51 103 0.0 0.0 0.00 0.00 0.00 79 1020.4
20190323081747 52 105 0.0 0.0 0.00 0.00 0.00 78 1020.8
20190323080845 53 103 0.0 0.0 0.00 0.00 0.00 78 1020.8
20190323075944 53 103 0.0 0.9 0.00 0.00 0.00 77 1020.8
20190323075043 53 105 0.0 0.9 0.00 0.00 0.00 76 1020.8
20190323074143 54 102 0.0 0.9 0.00 0.00 0.00 75 1020.8
20190323073242 54 102 0.0 0.0 0.00 0.00 0.00 74 1020.8
20190323072341 54 103 0.0 0.0 0.00 0.00 0.00 74 1020.8
20190323071440 55 103 0.0 0.0 0.00 0.00 0.00 73 1020.8
20190323070539 55 103 0.0 0.9 0.00 0.00 0.00 73 1020.8
20190323065638 55 121 0.9 1.7 0.00 0.00 0.00 73 1020.8
20190323064738 55 122 0.0 1.7 0.00 0.00 0.00 73 1020.8
20190323063836 54 115 0.0 0.0 0.00 0.00 0.00 73 1020.4
20190323062936 54 115 0.0 0.0 0.00 0.00 0.00 70 1020.7
20190323062035 55 115 0.0 2.6 0.00 0.00 0.00 70 1020.7
20190323061134 55 115 0.0 2.6 0.00 0.00 0.00 69 1020.7
20190323060233 55 138 0.9 1.7 0.00 0.00 0.00 71 1021.0
20190323055332 54 352 0.0 0.0 0.00 0.00 0.00 70 1020.7
20190323054430 55 352 0.0 0.0 0.00 0.00 0.00 70 1020.7
20190323053529 55 352 0.0 0.9 0.00 0.00 0.00 68 1020.7
20190323052628 56 353 0.0 0.9 0.00 0.00 0.00 68 1020.7
20190323051727 56 350 0.9 0.9 0.00 0.00 0.00 68 1020.7
20190323050826 56 323 0.0 0.0 0.00 0.00 0.00 68 1021.0
20190323045925 56 322 0.0 0.0 0.00 0.00 0.00 68 1020.7
20190323045024 56 322 0.0 0.0 0.00 0.00 0.00 66 1020.7
20190323044123 57 322 0.0 0.0 0.00 0.00 0.00 65 1021.0
20190323043223 57 321 0.0 0.0 0.00 0.00 0.00 64 1020.7
20190323042322 57 322 0.0 0.0 0.00 0.00 0.00 62 1020.7
20190323041421 58 322 0.0 0.0 0.00 0.00 0.00 63 1020.7
20190323040520 58 322 0.0 0.9 0.00 0.00 0.00 61 1020.7
20190323035619 59 321 0.0 0.9 0.00 0.00 0.00 59 1020.3
20190323034718 59 322 0.0 0.9 0.00 0.00 0.00 60 1020.6
20190323033817 59 321 0.0 0.9 0.00 0.00 0.00 59 1020.3
20190323032916 59 322 0.0 0.0 0.00 0.00 0.00 58 1020.3
20190323032015 60 322 0.0 0.0 0.00 0.00 0.00 56 1020.3
20190323031115 60 322 0.0 0.0 0.00 0.00 0.00 55 1020.2
20190323030213 61 322 0.0 0.0 0.00 0.00 0.00 53 1019.9
20190323025312 62 322 0.0 0.9 0.00 0.00 0.00 52 1019.9
20190323024411 62 322 0.0 0.9 0.00 0.00 0.00 51 1020.2
20190323023511 63 321 0.0 1.7 0.00 0.00 0.00 50 1019.9
20190323022609 63 322 0.9 1.7 0.00 0.00 0.00 49 1019.9
20190323021709 64 30 0.9 1.7 0.00 0.00 0.00 48 1020.2
20190323020808 64 308 0.0 2.6 0.00 0.00 0.00 48 1019.9
20190323015907 64 309 1.7 3.5 0.00 0.00 0.00 47 1019.9
20190323015007 65 311 0.9 3.5 0.00 0.00 0.00 47 1019.6
20190323014106 65 305 0.9 3.5 0.00 0.00 0.00 47 1019.9
20190323013204 66 327 0.9 2.6 0.00 0.00 0.00 46 1019.9
20190323012304 67 319 1.7 2.6 0.00 0.00 0.00 45 1019.9
20190323011403 68 310 0.9 1.7 0.00 0.00 0.00 44 1020.0
20190323010501 68 335 0.0 3.5 0.00 0.00 0.00 43 1020.0
20190323005600 70 315 0.9 3.5 0.00 0.00 0.00 42 1019.7
20190323004659 69 205 0.9 4.3 0.00 0.00 0.00 41 1020.0
20190323003759 69 261 0.9 4.3 0.00 0.00 0.00 43 1020.0
20190323002858 68 188 0.9 4.3 0.00 0.00 0.00 43 1020.0
20190323001957 68 333 1.7 4.3 0.00 0.00 0.00 43 1020.0
20190323001056 69 321 2.6 4.3 0.00 0.00 0.00 43 1020.0
20190323000155 69 305 1.7 3.5 0.00 0.00 0.00 43 1020.0
20190322235254 69 133 0.9 4.3 0.00 0.00 0.00 43 1020.3
20190322234353 69 272 1.7 5.2 0.00 0.00 0.00 42 1020.3
20190322233452 70 293 1.7 5.2 0.00 0.00 0.00 43 1020.4
20190322232551 69 301 1.7 4.3 0.00 0.00 0.00 44 1020.4
20190322231650 69 132 0.9 4.3 0.00 0.00 0.00 43 1020.7
20190322230749 68 121 1.7 6.1 0.00 0.00 0.00 45 1020.7